| time (UTC) | temp C | wind direction | speed KPH | gust KPH | rain 1hr cm | rain 24hr cm | rain mn cm | humidity % | barometer mb |
| 20260508010028 | -17 | 126 | 1.6 | 6.4 | 0.00 | 0.00 | 0.00 | 86 | 1016.8 |
| 20260508005027 | -17 | 135 | 1.6 | 4.8 | 0.00 | 0.00 | 0.00 | 86 | 1016.8 |
| 20260508004026 | -17 | 73 | 1.6 | 4.8 | 0.00 | 0.00 | 0.00 | 86 | 1016.8 |
| 20260508003025 | -17 | 68 | 1.6 | 4.8 | 0.00 | 0.00 | 0.00 | 86 | 1016.9 |
| 20260508002255 | -17 | 68 | 1.6 | 1.6 | 0.00 | 0.00 | 0.00 | 86 | 1016.9 |
| 20260508001054 | -17 | 68 | 1.6 | 4.8 | 0.00 | 0.00 | 0.00 | 86 | 1016.9 |
| 20260508000251 | -17 | 0 | 1.6 | 1.6 | 0.00 | 0.00 | 0.00 | 86 | 1017.0 |
| 20260507235130 | -17 | 0 | 1.6 | 1.6 | 0.00 | 0.00 | 0.00 | 86 | 1017.0 |
| 20260507234030 | -17 | 0 | 1.6 | 1.6 | 0.00 | 0.00 | 0.00 | 86 | 1017.0 |
| 20260507233129 | -17 | 357 | 1.6 | 1.6 | 0.00 | 0.00 | 0.00 | 86 | 1017.0 |
| 20260507232028 | -17 | 338 | 1.6 | 1.6 | 0.00 | 0.00 | 0.00 | 86 | 1017.0 |
| 20260507231028 | -17 | 338 | 0.0 | 1.6 | 0.00 | 0.00 | 0.00 | 86 | 1017.0 |
| 20260507230127 | -17 | 0.0 | 0.0 | 0.00 | 0.00 | 0.00 | 86 | 1017.1 | |
| 20260507225154 | -17 | 0.0 | 0.0 | 0.00 | 0.00 | 0.00 | 86 | 1017.1 | |
| 20260507224322 | -17 | 338 | 0.0 | 1.6 | 0.00 | 0.00 | 0.00 | 86 | 1017.1 |
| 20260507223422 | -17 | 293 | 0.0 | 1.6 | 0.00 | 0.03 | 0.00 | 86 | 1017.0 |
| 20260507222021 | -17 | 0.0 | 0.0 | 0.00 | 0.03 | 0.00 | 86 | 1017.1 | |
| 20260507221051 | -17 | 0.0 | 0.0 | 0.00 | 0.03 | 0.00 | 86 | 1017.1 | |
| 20260507220117 | -17 | 0.0 | 0.0 | 0.00 | 0.03 | 0.00 | 86 | 1017.1 | |
| 20260507215316 | -17 | 0.0 | 0.0 | 0.00 | 0.03 | 0.03 | 86 | 1017.0 | |
| 20260507214145 | -17 | 0.0 | 0.0 | 0.00 | 0.03 | 0.03 | 86 | 1016.9 | |
| 20260507212815 | -17 | 0.0 | 0.0 | 0.00 | 0.03 | 0.03 | 86 | 1016.9 | |
| 20260507211544 | -17 | 0.0 | 0.0 | 0.00 | 0.03 | 0.03 | 86 | 1016.9 | |
| 20260507210043 | -17 | 0.0 | 1.6 | 0.00 | 0.03 | 0.03 | 86 | 1016.9 | |
| 20260507205028 | -17 | 286 | 1.6 | 1.6 | 0.00 | 0.03 | 0.03 | 86 | 1016.7 |
| 20260507204057 | -17 | 270 | 0.0 | 1.6 | 0.00 | 0.03 | 0.03 | 86 | 1016.7 |
| 20260507203126 | -17 | 290 | 1.6 | 4.8 | 0.00 | 0.03 | 0.03 | 86 | 1016.8 |
| 20260507202223 | -17 | 284 | 1.6 | 4.8 | 0.00 | 0.03 | 0.03 | 86 | 1016.8 |
| 20260507201052 | -17 | 276 | 3.2 | 4.8 | 0.00 | 0.03 | 0.03 | 86 | 1016.6 |
| 20260507200051 | -17 | 270 | 3.2 | 4.8 | 0.00 | 0.03 | 0.03 | 86 | 1016.6 |
| 20260507195050 | -17 | 270 | 4.8 | 8.0 | 0.00 | 0.03 | 0.03 | 86 | 1016.6 |
| 20260507194019 | -17 | 278 | 6.4 | 11.3 | 0.00 | 0.03 | 0.03 | 86 | 1016.5 |
| 20260507193049 | -17 | 273 | 4.8 | 11.3 | 0.00 | 0.03 | 0.03 | 86 | 1016.5 |
| 20260507192048 | -17 | 288 | 4.8 | 11.3 | 0.00 | 0.03 | 0.03 | 86 | 1016.4 |
| 20260507191144 | -17 | 269 | 8.0 | 16.1 | 0.00 | 0.03 | 0.03 | 86 | 1016.3 |
| 20260507190043 | -17 | 276 | 9.7 | 17.7 | 0.00 | 0.03 | 0.03 | 86 | 1016.2 |
| 20260507185143 | -17 | 278 | 9.7 | 16.1 | 0.00 | 0.03 | 0.03 | 86 | 1016.1 |
| 20260507184041 | -17 | 267 | 9.7 | 17.7 | 0.00 | 0.03 | 0.03 | 86 | 1016.1 |
| 20260507183041 | -17 | 275 | 8.0 | 12.9 | 0.00 | 0.03 | 0.03 | 86 | 1016.0 |
| 20260507182040 | -17 | 272 | 8.0 | 11.3 | 0.00 | 0.03 | 0.03 | 86 | 1015.9 |
| 20260507181039 | -17 | 276 | 6.4 | 11.3 | 0.00 | 0.03 | 0.03 | 86 | 1015.9 |
| 20260507180038 | -17 | 280 | 6.4 | 11.3 | 0.00 | 0.03 | 0.03 | 86 | 1015.9 |
| 20260507175035 | -17 | 282 | 6.4 | 11.3 | 0.00 | 0.03 | 0.03 | 86 | 1015.9 |
| 20260507174104 | -17 | 280 | 3.2 | 6.4 | 0.00 | 0.03 | 0.03 | 86 | 1015.9 |
| 20260507173033 | -17 | 274 | 6.4 | 11.3 | 0.00 | 0.03 | 0.03 | 86 | 1015.9 |
| 20260507172132 | -17 | 267 | 8.0 | 12.9 | 0.00 | 0.03 | 0.03 | 86 | 1015.9 |
| 20260507171031 | -17 | 274 | 9.7 | 12.9 | 0.00 | 0.03 | 0.03 | 86 | 1015.9 |
| 20260507170030 | -17 | 278 | 8.0 | 11.3 | 0.00 | 0.03 | 0.03 | 86 | 1016.0 |
| 20260507165027 | -17 | 267 | 6.4 | 12.9 | 0.00 | 0.03 | 0.03 | 86 | 1015.8 |
| 20260507164048 | -17 | 281 | 6.4 | 12.9 | 0.00 | 0.03 | 0.03 | 86 | 1015.9 |
| 20260507163046 | -17 | 271 | 8.0 | 12.9 | 0.00 | 0.03 | 0.03 | 86 | 1015.9 |
| 20260507162044 | -17 | 268 | 8.0 | 17.7 | 0.00 | 0.03 | 0.03 | 86 | 1015.9 |
| 20260507161043 | -17 | 274 | 6.4 | 12.9 | 0.00 | 0.03 | 0.03 | 86 | 1015.9 |
| 20260507160042 | -17 | 268 | 6.4 | 11.3 | 0.00 | 0.03 | 0.03 | 86 | 1016.0 |
| 20260507155042 | -17 | 284 | 4.8 | 11.3 | 0.00 | 0.03 | 0.03 | 86 | 1016.1 |
| 20260507154038 | -17 | 277 | 6.4 | 12.9 | 0.00 | 0.03 | 0.03 | 86 | 1016.1 |
| 20260507153037 | -17 | 297 | 6.4 | 17.7 | 0.00 | 0.03 | 0.03 | 86 | 1016.2 |
| 20260507152134 | -17 | 281 | 8.0 | 12.9 | 0.00 | 0.03 | 0.03 | 86 | 1016.1 |
| 20260507151033 | -17 | 280 | 6.4 | 12.9 | 0.00 | 0.03 | 0.03 | 86 | 1016.1 |
| 20260507150029 | -17 | 270 | 6.4 | 12.9 | 0.00 | 0.03 | 0.03 | 86 | 1016.2 |
| 20260507145028 | -17 | 274 | 8.0 | 12.9 | 0.00 | 0.03 | 0.03 | 86 | 1016.2 |
| 20260507144028 | -17 | 274 | 8.0 | 12.9 | 0.00 | 0.03 | 0.03 | 86 | 1016.3 |
| 20260507143027 | -17 | 289 | 6.4 | 12.9 | 0.00 | 0.03 | 0.03 | 86 | 1016.4 |
| 20260507142056 | -17 | 280 | 6.4 | 12.9 | 0.00 | 0.03 | 0.03 | 86 | 1016.4 |
| 20260507141025 | -17 | 281 | 6.4 | 12.9 | 0.00 | 0.03 | 0.03 | 86 | 1016.5 |
| 20260507140122 | -17 | 268 | 6.4 | 12.9 | 0.00 | 0.03 | 0.03 | 86 | 1016.5 |
| 20260507135021 | -17 | 271 | 8.0 | 12.9 | 0.00 | 0.03 | 0.03 | 86 | 1016.6 |
| 20260507134050 | -17 | 281 | 6.4 | 12.9 | 0.00 | 0.03 | 0.03 | 86 | 1016.6 |
| 20260507133049 | -17 | 280 | 6.4 | 12.9 | 0.00 | 0.03 | 0.03 | 86 | 1016.6 |
| 20260507132048 | -17 | 277 | 6.4 | 11.3 | 0.00 | 0.03 | 0.03 | 86 | 1016.6 |
| 20260507131017 | -17 | 278 | 6.4 | 12.9 | 0.00 | 0.03 | 0.03 | 86 | 1016.6 |
| 20260507130017 | -17 | 282 | 9.7 | 16.1 | 0.00 | 0.03 | 0.03 | 86 | 1016.8 |
| 20260507125046 | -17 | 266 | 8.0 | 12.9 | 0.00 | 0.03 | 0.03 | 86 | 1016.7 |
| 20260507124045 | -17 | 272 | 8.0 | 12.9 | 0.00 | 0.03 | 0.03 | 86 | 1016.7 |
| 20260507123044 | -17 | 273 | 8.0 | 11.3 | 0.00 | 0.03 | 0.03 | 86 | 1016.8 |
| 20260507122044 | -17 | 282 | 6.4 | 12.9 | 0.00 | 0.03 | 0.03 | 86 | 1016.8 |
| 20260507121043 | -17 | 268 | 3.2 | 6.4 | 0.00 | 0.03 | 0.03 | 86 | 1016.9 |
| 20260507120042 | -17 | 270 | 4.8 | 8.0 | 0.00 | 0.03 | 0.03 | 86 | 1016.9 |
| 20260507115041 | -17 | 280 | 3.2 | 8.0 | 0.00 | 0.03 | 0.03 | 86 | 1016.9 |
| 20260507114040 | -17 | 215 | 3.2 | 8.0 | 0.00 | 0.03 | 0.03 | 86 | 1017.0 |
| 20260507113039 | -17 | 227 | 3.2 | 6.4 | 0.00 | 0.03 | 0.03 | 86 | 1017.1 |
| 20260507112039 | -17 | 168 | 3.2 | 6.4 | 0.00 | 0.03 | 0.03 | 86 | 1017.2 |
| 20260507111038 | -17 | 206 | 4.8 | 8.0 | 0.00 | 0.03 | 0.03 | 86 | 1017.1 |
| 20260507110037 | -17 | 222 | 3.2 | 6.4 | 0.00 | 0.03 | 0.03 | 86 | 1017.2 |
| 20260507105036 | -17 | 199 | 4.8 | 8.0 | 0.00 | 0.03 | 0.03 | 86 | 1017.1 |
| 20260507104033 | -17 | 239 | 3.2 | 8.0 | 0.00 | 0.03 | 0.03 | 86 | 1017.0 |
| 20260507103033 | -17 | 225 | 3.2 | 8.0 | 0.00 | 0.03 | 0.03 | 86 | 1017.0 |
| 20260507102032 | -17 | 213 | 4.8 | 11.3 | 0.00 | 0.03 | 0.03 | 86 | 1017.0 |
| 20260507101029 | -17 | 229 | 4.8 | 8.0 | 0.00 | 0.03 | 0.03 | 86 | 1017.0 |
| 20260507100028 | -17 | 187 | 4.8 | 8.0 | 0.00 | 0.03 | 0.03 | 86 | 1016.9 |
| 20260507095057 | -17 | 222 | 0.0 | 1.6 | 0.00 | 0.03 | 0.03 | 86 | 1016.9 |
| 20260507094026 | -17 | 112 | 3.2 | 6.4 | 0.00 | 0.03 | 0.03 | 86 | 1016.8 |
| 20260507093025 | -17 | 128 | 3.2 | 6.4 | 0.00 | 0.03 | 0.03 | 86 | 1016.8 |
| 20260507092025 | -17 | 125 | 3.2 | 6.4 | 0.00 | 0.03 | 0.03 | 86 | 1016.8 |
| 20260507091024 | -17 | 100 | 3.2 | 6.4 | 0.00 | 0.03 | 0.03 | 86 | 1016.8 |
| 20260507090023 | -17 | 102 | 3.2 | 6.4 | 0.00 | 0.03 | 0.03 | 86 | 1016.8 |
| 20260507085052 | -17 | 81 | 3.2 | 6.4 | 0.00 | 0.03 | 0.03 | 86 | 1016.8 |
| 20260507084021 | -17 | 88 | 3.2 | 6.4 | 0.00 | 0.03 | 0.03 | 86 | 1016.8 |
| 20260507083118 | -17 | 96 | 1.6 | 8.0 | 0.00 | 0.05 | 0.03 | 86 | 1016.7 |
| 20260507082047 | -17 | 127 | 4.8 | 11.3 | 0.00 | 0.08 | 0.03 | 86 | 1016.6 |
| 20260507081046 | -17 | 119 | 3.2 | 8.0 | 0.00 | 0.10 | 0.03 | 86 | 1016.5 |
| 20260507080045 | -17 | 118 | 3.2 | 8.0 | 0.00 | 0.15 | 0.03 | 86 | 1016.5 |
| 20260507075044 | -17 | 99 | 3.2 | 6.4 | 0.00 | 0.23 | 0.03 | 86 | 1016.4 |
| 20260507074041 | -17 | 104 | 1.6 | 4.8 | 0.00 | 0.25 | 0.03 | 86 | 1016.4 |
| 20260507073040 | -17 | 95 | 3.2 | 6.4 | 0.00 | 0.28 | 0.03 | 86 | 1016.4 |
| 20260507072039 | -17 | 93 | 3.2 | 6.4 | 0.00 | 0.30 | 0.03 | 86 | 1016.4 |
| 20260507071038 | -17 | 98 | 1.6 | 6.4 | 0.00 | 0.30 | 0.03 | 86 | 1016.3 |
| 20260507070037 | -17 | 103 | 3.2 | 8.0 | 0.00 | 0.30 | 0.03 | 86 | 1016.3 |
| 20260507065037 | -17 | 115 | 3.2 | 6.4 | 0.00 | 0.30 | 0.03 | 86 | 1016.3 |
| 20260507064035 | -17 | 86 | 3.2 | 4.8 | 0.00 | 0.30 | 0.03 | 86 | 1016.3 |
| 20260507063032 | -17 | 92 | 3.2 | 4.8 | 0.00 | 0.30 | 0.03 | 86 | 1016.2 |
| 20260507062031 | -17 | 105 | 3.2 | 6.4 | 0.00 | 0.30 | 0.03 | 86 | 1016.2 |
| 20260507061030 | -17 | 126 | 3.2 | 6.4 | 0.00 | 0.30 | 0.03 | 86 | 1016.2 |
| 20260507060029 | -17 | 90 | 1.6 | 4.8 | 0.00 | 0.30 | 0.03 | 86 | 1016.1 |
| 20260507055129 | -17 | 92 | 3.2 | 4.8 | 0.00 | 0.30 | 0.03 | 86 | 1016.1 |
| 20260507054027 | -17 | 99 | 1.6 | 4.8 | 0.00 | 0.30 | 0.03 | 86 | 1016.1 |
| 20260507053057 | -17 | 90 | 1.6 | 4.8 | 0.00 | 0.30 | 0.03 | 86 | 1016.0 |
| 20260507052055 | -17 | 111 | 1.6 | 4.8 | 0.00 | 0.30 | 0.03 | 86 | 1016.0 |
| 20260507051125 | -17 | 75 | 1.6 | 4.8 | 0.00 | 0.30 | 0.03 | 86 | 1015.9 |
| 20260507050024 | -17 | 68 | 1.6 | 4.8 | 0.00 | 0.30 | 0.03 | 86 | 1015.8 |
| 20260507045323 | -17 | 68 | 0.0 | 1.6 | 0.00 | 0.30 | 0.03 | 86 | 1015.8 |
| 20260507044053 | -17 | 67 | 0.0 | 1.6 | 0.00 | 0.30 | 0.03 | 86 | 1015.7 |
| 20260507043122 | -17 | 68 | 0.0 | 1.6 | 0.00 | 0.30 | 0.03 | 86 | 1015.7 |
| 20260507042221 | -17 | 68 | 0.0 | 1.6 | 0.00 | 0.30 | 0.03 | 86 | 1015.7 |
| 20260507041020 | -17 | 68 | 1.6 | 4.8 | 0.00 | 0.30 | 0.03 | 86 | 1015.6 |
| 20260507040019 | -17 | 68 | 1.6 | 1.6 | 0.00 | 0.30 | 0.03 | 86 | 1015.6 |
| 20260507035048 | -17 | 68 | 1.6 | 1.6 | 0.00 | 0.30 | 0.03 | 86 | 1015.5 |
| 20260507034048 | -17 | 68 | 0.0 | 1.6 | 0.00 | 0.30 | 0.03 | 86 | 1015.6 |
| 20260507033047 | -17 | 68 | 0.0 | 1.6 | 0.00 | 0.30 | 0.03 | 86 | 1015.5 |
| 20260507032116 | -17 | 45 | 0.0 | 1.6 | 0.00 | 0.33 | 0.03 | 86 | 1015.5 |
| 20260507031046 | -17 | 0.0 | 0.0 | 0.00 | 0.33 | 0.03 | 86 | 1015.5 | |
| 20260507030214 | -17 | 0.0 | 0.0 | 0.00 | 0.33 | 0.03 | 86 | 1015.4 | |
| 20260507025536 | -17 | 45 | 0.0 | 1.6 | 0.00 | 0.33 | 0.03 | 86 | 1015.5 |
| 20260507024535 | -17 | 71 | 1.6 | 4.8 | 0.00 | 0.33 | 0.03 | 86 | 1015.4 |
| 20260507023604 | -17 | 0.0 | 0.0 | 0.00 | 0.33 | 0.03 | 86 | 1015.3 | |
| 20260507023004 | -17 | 0.0 | 0.0 | 0.00 | 0.33 | 0.03 | 86 | 1015.3 | |
| 20260507021829 | -17 | 0.0 | 0.0 | 0.00 | 0.33 | 0.03 | 86 | 1015.2 | |
| 20260507020529 | -17 | 113 | 0.0 | 1.6 | 0.00 | 0.33 | 0.03 | 86 | 1015.1 |
| 20260507015627 | -17 | 113 | 0.0 | 1.6 | 0.00 | 0.33 | 0.03 | 86 | 1015.1 |
| 20260507014927 | -17 | 0.0 | 0.0 | 0.00 | 0.33 | 0.03 | 86 | 1015.1 | |
| 20260507012557 | -17 | 113 | 0.0 | 1.6 | 0.00 | 0.33 | 0.03 | 86 | 1015.1 |
| 20260507011555 | -17 | 113 | 1.6 | 1.6 | 0.00 | 0.33 | 0.03 | 86 | 1015.1 |